When you browse on this site, cookies collect data to enhance your experience and personalize the content and advertising you see.
Visit our Privacy Policy to learn more. By continuing to use the site, you agree to this use of cookies and data.
  • In Hungary
  • List of Countries
  • For 7 days
  • Water Temperature
  • Weather Map
  • News
  • Weather Widgets
  • user-avatar
    Login

    Hourly Weather Khartsyzk

    Today, 2 April, Thursday

    Time Temperature Precipitation Wind Pressure Humidity
    00:00 +1°C° 0 mm 2 mps 744 mmHg 43%
    01:00 +1°C° 0 mm 2 mps 744 mmHg 45%
    02:00 +1°C° 0 mm 2 mps 744 mmHg 46%
    03:00 -1°C° 0 mm 3 mps 744 mmHg 48%
    04:00 -1°C° 0 mm 3 mps 744 mmHg 49%
    05:00 -1°C° 0 mm 3 mps 744 mmHg 50%
    06:00 -1°C° 0 mm 3 mps 744 mmHg 51%
    07:00 0°C° 0 mm 3 mps 744 mmHg 48%
    08:00 +2°C° 0 mm 3 mps 744 mmHg 45%
    09:00 +3°C° 0 mm 3 mps 745 mmHg 43%
    10:00 +4°C° 0 mm 3 mps 744 mmHg 40%
    11:00 +5°C° 0 mm 3 mps 744 mmHg 37%
    12:00 +7°C° 0 mm 3 mps 744 mmHg 35%
    13:00 +8°C° 0 mm 3 mps 744 mmHg 34%
    14:00 +8°C° 0 mm 3 mps 744 mmHg 33%
    15:00 +8°C° 0 mm 4 mps 743 mmHg 32%
    16:00 +9°C° 0 mm 3 mps 743 mmHg 33%
    17:00 +9°C° 0 mm 3 mps 743 mmHg 35%
    18:00 +9°C° 0 mm 3 mps 743 mmHg 36%
    19:00 +7°C° 0 mm 3 mps 743 mmHg 40%
    20:00 +5°C° 0 mm 3 mps 743 mmHg 44%
    21:00 +4°C° 0 mm 3 mps 743 mmHg 48%
    22:00 +5°C° 0 mm 2 mps 743 mmHg 50%
    23:00 +4°C° 0 mm 2 mps 743 mmHg 52%

    Tomorrow, 3 April, Friday

    Time Temperature Precipitation Wind Pressure Humidity
    00:00 +4°C° 0 mm 2 mps 743 mmHg 55%
    01:00 +4°C° 0 mm 1 mps 743 mmHg 55%
    02:00 +4°C° 0 mm 1 mps 743 mmHg 55%
    03:00 +4°C° 0 mm 1 mps 743 mmHg 55%
    04:00 +4°C° 0 mm 1 mps 743 mmHg 56%
    05:00 +3°C° 0 mm 1 mps 743 mmHg 56%
    06:00 +2°C° 0 mm 0 mps 743 mmHg 57%
    07:00 +4°C° 0 mm 1 mps 743 mmHg 52%
    08:00 +6°C° 0 mm 1 mps 743 mmHg 47%
    09:00 +8°C° 0 mm 1 mps 744 mmHg 42%
    10:00 +9°C° 0 mm 1 mps 743 mmHg 39%
    11:00 +9°C° 0 mm 2 mps 743 mmHg 36%
    12:00 +10°C° 0 mm 2 mps 743 mmHg 33%
    13:00 +12°C° 0 mm 2 mps 743 mmHg 32%
    14:00 +12°C° 0 mm 2 mps 743 mmHg 30%
    15:00 +13°C° 0 mm 2 mps 743 mmHg 29%
    16:00 +13°C° 0 mm 2 mps 743 mmHg 30%
    17:00 +13°C° 0 mm 2 mps 742 mmHg 30%
    18:00 +13°C° 0 mm 2 mps 742 mmHg 31%
    19:00 +10°C° 0 mm 2 mps 743 mmHg 34%
    20:00 +9°C° 0 mm 2 mps 743 mmHg 37%
    21:00 +9°C° 0 mm 1 mps 743 mmHg 39%
    22:00 +9°C° 0 mm 1 mps 743 mmHg 41%
    23:00 +8°C° 0 mm 1 mps 744 mmHg 42%

    Day after tomorrow, 4 April, Saturday

    Time Temperature Precipitation Wind Pressure Humidity
    00:00 +8°C° 0 mm 1 mps 744 mmHg 44%
    01:00 +7°C° 0 mm 1 mps 744 mmHg 47%
    02:00 +7°C° 0 mm 1 mps 744 mmHg 49%
    03:00 +6°C° 0 mm 1 mps 744 mmHg 52%
    04:00 +6°C° 0 mm 1 mps 744 mmHg 54%
    05:00 +5°C° 0 mm 0 mps 744 mmHg 56%
    06:00 +5°C° 0 mm 0 mps 745 mmHg 58%
    07:00 +7°C° 0 mm 1 mps 745 mmHg 55%
    08:00 +8°C° 0 mm 1 mps 745 mmHg 52%
    09:00 +10°C° 0 mm 1 mps 745 mmHg 49%
    10:00 +11°C° 0 mm 1 mps 746 mmHg 45%
    11:00 +12°C° 0 mm 2 mps 746 mmHg 41%
    12:00 +13°C° 0 mm 2 mps 746 mmHg 38%
    13:00 +14°C° 0 mm 2 mps 746 mmHg 35%
    14:00 +13°C° 0 mm 3 mps 746 mmHg 32%
    15:00 +14°C° 0 mm 3 mps 746 mmHg 29%
    16:00 +14°C° 0 mm 3 mps 746 mmHg 30%
    17:00 +13°C° 0 mm 3 mps 746 mmHg 32%
    18:00 +13°C° 0 mm 3 mps 745 mmHg 33%
    19:00 +13°C° 0 mm 2 mps 746 mmHg 36%
    20:00 +12°C° 0 mm 2 mps 746 mmHg 40%
    21:00 +10°C° 0 mm 2 mps 747 mmHg 44%
    22:00 +10°C° 0 mm 2 mps 747 mmHg 48%
    23:00 +9°C° 0 mm 2 mps 747 mmHg 52%

    5 April, Sunday

    Time Temperature Precipitation Wind Pressure Humidity
    00:00 +9°C° 0 mm 2 mps 747 mmHg 57%
    01:00 +8°C° 0 mm 3 mps 747 mmHg 58%
    02:00 +8°C° 0 mm 3 mps 747 mmHg 59%
    03:00 +6°C° 0 mm 4 mps 748 mmHg 60%
    04:00 +6°C° 0.2 mm 4 mps 748 mmHg 66%
    05:00 +5°C° 0.2 mm 4 mps 748 mmHg 72%
    06:00 +4°C° 0.2 mm 4 mps 748 mmHg 78%
    07:00 +5°C° 0.1 mm 5 mps 749 mmHg 67%
    08:00 +5°C° 0.1 mm 5 mps 749 mmHg 56%
    09:00 +5°C° 0.1 mm 6 mps 749 mmHg 45%
    10:00 +7°C° 0 mm 6 mps 749 mmHg 41%
    11:00 +8°C° 0 mm 6 mps 750 mmHg 38%
    12:00 +8°C° 0 mm 6 mps 750 mmHg 35%
    13:00 +8°C° 0 mm 7 mps 750 mmHg 34%
    14:00 +9°C° 0 mm 7 mps 750 mmHg 34%
    15:00 +9°C° 0 mm 8 mps 750 mmHg 33%
    16:00 +7°C° 0 mm 8 mps 750 mmHg 36%
    17:00 +6°C° 0 mm 8 mps 750 mmHg 38%
    18:00 +5°C° 0 mm 8 mps 750 mmHg 40%
    19:00 +4°C° 0 mm 8 mps 751 mmHg 40%
    20:00 +3°C° 0 mm 7 mps 752 mmHg 41%
    21:00 +2°C° 0 mm 6 mps 753 mmHg 41%
    22:00 +1°C° 0 mm 6 mps 753 mmHg 42%
    23:00 0°C° 0 mm 7 mps 754 mmHg 43%

    6 April, Monday

    Time Temperature Precipitation Wind Pressure Humidity
    00:00 -1°C° 0 mm 7 mps 754 mmHg 44%
    01:00 -1°C° 0 mm 6 mps 754 mmHg 44%
    02:00 -2°C° 0 mm 6 mps 755 mmHg 44%
    03:00 -2°C° 0 mm 6 mps 755 mmHg 43%
    04:00 -3°C° 0 mm 6 mps 755 mmHg 46%
    05:00 -3°C° 0 mm 6 mps 755 mmHg 48%
    06:00 -3°C° 0 mm 6 mps 756 mmHg 51%
    07:00 -2°C° 0 mm 7 mps 756 mmHg 46%
    08:00 -1°C° 0 mm 7 mps 756 mmHg 41%
    09:00 0°C° 0 mm 8 mps 756 mmHg 36%
    10:00 +1°C° 0 mm 8 mps 756 mmHg 35%
    11:00 +1°C° 0 mm 8 mps 756 mmHg 33%
    12:00 +2°C° 0 mm 8 mps 756 mmHg 32%
    13:00 +4°C° 0 mm 8 mps 756 mmHg 30%
    14:00 +4°C° 0 mm 8 mps 756 mmHg 29%
    15:00 +5°C° 0 mm 8 mps 756 mmHg 28%
    16:00 +4°C° 0 mm 7 mps 756 mmHg 29%
    17:00 +4°C° 0 mm 7 mps 756 mmHg 30%
    18:00 +4°C° 0 mm 7 mps 757 mmHg 30%
    19:00 +3°C° 0 mm 6 mps 757 mmHg 33%
    20:00 +2°C° 0 mm 5 mps 757 mmHg 36%
    21:00 +1°C° 0 mm 4 mps 758 mmHg 39%
    22:00 +1°C° 0 mm 3 mps 758 mmHg 41%
    23:00 +1°C° 0 mm 3 mps 758 mmHg 42%

    7 April, Tuesday

    Time Temperature Precipitation Wind Pressure Humidity
    00:00 +1°C° 0 mm 2 mps 758 mmHg 43%
    01:00 +1°C° 0 mm 2 mps 758 mmHg 44%
    02:00 +1°C° 0 mm 2 mps 757 mmHg 45%
    03:00 -1°C° 0 mm 2 mps 757 mmHg 45%
    04:00 -1°C° 0 mm 2 mps 757 mmHg 47%
    05:00 -1°C° 0 mm 2 mps 757 mmHg 48%
    06:00 -1°C° 0 mm 3 mps 757 mmHg 49%
    07:00 +1°C° 0 mm 3 mps 757 mmHg 44%
    08:00 +1°C° 0 mm 4 mps 757 mmHg 40%
    09:00 +3°C° 0 mm 5 mps 757 mmHg 36%
    10:00 +5°C° 0 mm 5 mps 756 mmHg 37%
    11:00 +7°C° 0 mm 5 mps 756 mmHg 38%
    12:00 +8°C° 0 mm 5 mps 756 mmHg 40%
    13:00 +9°C° 0 mm 5 mps 755 mmHg 39%
    14:00 +9°C° 0 mm 5 mps 755 mmHg 38%
    15:00 +10°C° 0 mm 5 mps 754 mmHg 37%
    16:00 +10°C° 0 mm 5 mps 754 mmHg 38%
    17:00 +10°C° 0 mm 5 mps 753 mmHg 38%
    18:00 +11°C° 0 mm 4 mps 753 mmHg 38%
    19:00 +10°C° 0 mm 4 mps 753 mmHg 41%
    20:00 +8°C° 0 mm 3 mps 753 mmHg 44%
    21:00 +7°C° 0 mm 3 mps 753 mmHg 48%
    22:00 +7°C° 0 mm 2 mps 753 mmHg 50%
    23:00 +6°C° 0 mm 2 mps 752 mmHg 52%
    Show more